Terminal Aerodrome Forecast
Issued by NWS Brownsville, TX

Home | Current Version | Previous Version | Text Only | Print | Product List | Glossary On
Versions: 1 2 3 4 5 6 7 8 9 10 11 12 13 14 15 16 17 18 19
000
FTUS44 KBRO 212000 AAA
TAFBRO
TAF AMD
KBRO 212009Z 2120/2218 05010KT P6SM VCSH BKN040 OVC090
     FM220000 04006KT P6SM VCSH SCT040 OVC100
     FM220600 03005KT P6SM SCT050 BKN100 PROB30 2209/2212 5SM -SHRA
      BKN030
     FM221200 04007KT P6SM VCSH SCT030 BKN150 PROB30 2212/2215 5SM
      -SHRA BKN030=

USA.gov is the U.S. government's official web portal to all federal, state and local government web resources and services.